TimeCST,TemperatureF,Dew PointF,Humidity,Sea Level PressureIn,VisibilityMPH,Wind Direction,Wind SpeedMPH,Gust SpeedMPH,PrecipitationIn,Events,Conditions,WindDirDegrees,DateUTC
12:15 AM,10.6,7.9,89,30.29,2.0,ESE,4.6,-,N/A,,Overcast,110,2014-02-17 06:15:00
12:35 AM,10.2,7.3,88,30.28,5.0,ESE,4.6,-,N/A,,Overcast,110,2014-02-17 06:35:00
12:55 AM,11.8,9.0,88,30.28,5.0,Calm,Calm,-,N/A,,Overcast,0,2014-02-17 06:55:00
1:10 AM,14.5,12.4,91,30.28,5.0,SE,4.6,-,N/A,,Overcast,140,2014-02-17 07:10:00
1:35 AM,15.4,13.1,90,30.28,7.0,SE,4.6,-,N/A,,Scattered Clouds,130,2014-02-17 07:35:00
1:55 AM,15.6,13.3,90,30.27,7.0,SE,4.6,-,N/A,,Clear,130,2014-02-17 07:55:00
2:15 AM,16.7,14.5,91,30.26,7.0,ESE,11.5,-,N/A,,Scattered Clouds,120,2014-02-17 08:15:00
2:35 AM,17.1,14.9,91,30.26,10.0,SE,9.2,-,N/A,,Scattered Clouds,130,2014-02-17 08:35:00
2:55 AM,17.2,14.9,91,30.25,10.0,ESE,11.5,-,N/A,,Scattered Clouds,120,2014-02-17 08:55:00
3:15 AM,17.1,14.9,91,30.24,10.0,ESE,12.7,-,N/A,,Scattered Clouds,120,2014-02-17 09:15:00
3:35 AM,17.1,14.5,90,30.24,10.0,ESE,12.7,-,N/A,,Mostly Cloudy,120,2014-02-17 09:35:00
3:55 AM,18.0,13.1,81,30.24,10.0,SE,11.5,-,N/A,,Mostly Cloudy,130,2014-02-17 09:55:00
4:15 AM,18.1,12.9,80,30.23,10.0,ESE,11.5,-,N/A,,Overcast,110,2014-02-17 10:15:00
4:35 AM,17.6,12.0,79,30.23,10.0,ESE,11.5,-,N/A,,Overcast,110,2014-02-17 10:35:00
4:55 AM,17.6,12.0,79,30.22,10.0,ESE,12.7,-,N/A,,Overcast,110,2014-02-17 10:55:00
5:15 AM,17.6,12.2,79,30.21,10.0,ESE,11.5,-,N/A,,Overcast,120,2014-02-17 11:15:00
5:35 AM,18.0,12.7,80,30.21,10.0,ESE,10.4,-,N/A,,Overcast,120,2014-02-17 11:35:00
5:55 AM,18.1,12.7,79,30.20,10.0,ESE,11.5,-,N/A,,Overcast,120,2014-02-17 11:55:00
6:15 AM,18.1,12.4,78,30.19,10.0,ESE,11.5,-,N/A,,Overcast,120,2014-02-17 12:15:00
6:35 AM,17.6,12.0,79,30.18,10.0,ESE,12.7,-,N/A,,Scattered Clouds,120,2014-02-17 12:35:00
6:55 AM,18.1,12.2,78,30.18,10.0,ESE,12.7,-,N/A,,Scattered Clouds,120,2014-02-17 12:55:00
7:15 AM,18.1,12.2,78,30.18,10.0,ESE,12.7,-,N/A,,Scattered Clouds,120,2014-02-17 13:15:00
7:35 AM,18.1,12.2,78,30.17,7.0,SE,11.5,-,N/A,,Mostly Cloudy,130,2014-02-17 13:35:00
7:55 AM,18.3,12.2,77,30.17,7.0,SE,9.2,-,N/A,,Overcast,130,2014-02-17 13:55:00
8:15 AM,19.0,12.6,76,30.17,7.0,SE,10.4,16.1,N/A,,Overcast,140,2014-02-17 14:15:00
8:35 AM,19.4,12.2,74,30.16,7.0,SE,13.8,18.4,N/A,,Overcast,140,2014-02-17 14:35:00
8:55 AM,19.2,12.2,74,30.13,4.0,SE,12.7,20.7,N/A,Snow,Light Snow,130,2014-02-17 14:55:00
9:15 AM,19.2,12.2,74,30.09,7.0,SE,17.3,26.5,N/A,,Overcast,130,2014-02-17 15:15:00
9:35 AM,19.4,12.2,74,30.08,5.0,SE,11.5,24.2,N/A,,Haze,130,2014-02-17 15:35:00
9:55 AM,20.1,12.2,71,30.07,7.0,SE,15.0,23.0,N/A,,Overcast,130,2014-02-17 15:55:00
10:15 AM,19.9,11.8,71,30.06,7.0,SE,11.5,21.9,N/A,,Overcast,130,2014-02-17 16:15:00
10:35 AM,20.1,11.8,70,30.04,7.0,SE,16.1,23.0,N/A,,Overcast,130,2014-02-17 16:35:00
10:55 AM,20.3,12.4,71,30.01,7.0,SE,11.5,21.9,N/A,,Overcast,130,2014-02-17 16:55:00
11:15 AM,21.2,12.2,68,29.99,7.0,ESE,18.4,24.2,N/A,,Overcast,120,2014-02-17 17:15:00
11:35 AM,21.6,13.1,70,29.96,5.0,SE,17.3,26.5,N/A,,Haze,130,2014-02-17 17:35:00
11:55 AM,21.6,12.7,69,29.94,7.0,SE,18.4,25.3,N/A,,Mostly Cloudy,130,2014-02-17 17:55:00
12:15 PM,21.4,12.6,69,29.91,7.0,SE,16.1,23.0,N/A,,Mostly Cloudy,130,2014-02-17 18:15:00
12:35 PM,21.2,12.9,70,29.88,7.0,SE,11.5,24.2,N/A,,Mostly Cloudy,130,2014-02-17 18:35:00
12:55 PM,21.2,13.1,71,29.86,5.0,SE,18.4,26.5,N/A,,Haze,140,2014-02-17 18:55:00
1:15 PM,21.7,13.6,71,29.85,7.0,SE,13.8,20.7,N/A,,Overcast,140,2014-02-17 19:15:00
1:35 PM,20.3,15.3,81,29.81,0.2,ESE,18.4,26.5,N/A,Snow,Snow,120,2014-02-17 19:35:00
1:55 PM,20.1,16.7,87,29.76,0.2,ESE,21.9,26.5,N/A,Snow,Snow,120,2014-02-17 19:55:00
2:15 PM,20.1,17.4,89,29.72,0.2,ESE,21.9,29.9,N/A,Snow,Snow,110,2014-02-17 20:15:00
2:35 PM,20.7,18.1,90,29.73,0.2,SE,12.7,24.2,0.02,Snow,Snow,140,2014-02-17 20:35:00
2:55 PM,21.0,18.5,90,29.71,0.5,SE,11.5,20.7,0.03,Snow,Light Snow,130,2014-02-17 20:55:00
3:15 PM,21.2,18.5,89,29.70,0.5,SE,10.4,16.1,0.01,Snow,Snow,130,2014-02-17 21:15:00
3:35 PM,21.7,19.4,91,29.71,0.2,SE,9.2,-,0.01,Snow,Snow,140,2014-02-17 21:35:00
3:55 PM,21.7,19.4,91,29.69,0.2,SE,9.2,-,0.03,Snow,Snow,130,2014-02-17 21:55:00
4:15 PM,21.9,19.4,90,29.70,0.8,SSE,6.9,-,N/A,Snow,Light Snow,150,2014-02-17 22:15:00
4:35 PM,22.1,19.6,90,29.70,1.5,SSE,4.6,-,N/A,Snow,Light Snow,150,2014-02-17 22:35:00
4:55 PM,22.1,19.8,91,29.70,0.8,SSE,4.6,-,N/A,Snow,Light Snow,160,2014-02-17 22:55:00
5:15 PM,22.1,19.9,91,29.70,0.8,SSE,3.5,-,N/A,Snow,Light Snow,160,2014-02-17 23:15:00
5:35 PM,21.9,19.9,92,29.69,0.8,Calm,Calm,-,0.01,Snow,Light Snow,0,2014-02-17 23:35:00
5:55 PM,22.1,20.3,93,29.69,2.5,SE,4.6,-,0.01,Snow,Light Snow,140,2014-02-17 23:55:00
6:15 PM,22.1,20.7,94,29.68,2.0,SSE,4.6,-,N/A,Snow,Light Snow,150,2014-02-18 00:15:00
6:35 PM,22.5,20.8,93,29.67,1.5,SSE,4.6,-,N/A,Snow,Light Snow,160,2014-02-18 00:35:00
6:55 PM,22.6,21.0,93,29.67,1.0,SSW,3.5,-,N/A,Snow,Snow,200,2014-02-18 00:55:00
7:15 PM,23.0,21.6,94,29.68,1.5,SW,6.9,-,N/A,Snow,Light Snow,220,2014-02-18 01:15:00
7:35 PM,23.9,22.6,95,29.68,2.0,WSW,9.2,-,N/A,Snow,Light Snow,240,2014-02-18 01:35:00
7:55 PM,25.3,23.9,94,29.68,2.0,West,16.1,21.9,N/A,Snow,Light Snow,260,2014-02-18 01:55:00
8:15 PM,25.7,23.5,92,29.69,2.5,West,19.6,26.5,N/A,Snow,Light Snow,270,2014-02-18 02:15:00
8:35 PM,25.7,23.0,89,29.70,4.0,West,17.3,21.9,N/A,Snow,Light Snow,280,2014-02-18 02:35:00
8:55 PM,26.1,22.5,86,29.70,7.0,West,11.5,23.0,N/A,,Overcast,280,2014-02-18 02:55:00
9:15 PM,26.4,21.7,82,29.71,7.0,West,18.4,28.8,N/A,,Overcast,280,2014-02-18 03:15:00
9:35 PM,26.4,21.7,82,29.72,7.0,West,15.0,26.5,N/A,,Overcast,280,2014-02-18 03:35:00
9:55 PM,26.6,21.7,82,29.72,3.0,WNW,15.0,34.5,N/A,,Overcast,290,2014-02-18 03:55:00
10:15 PM,27.0,21.9,81,29.73,4.0,WNW,13.8,27.6,N/A,,Scattered Clouds,290,2014-02-18 04:15:00
10:35 PM,27.1,22.6,83,29.73,5.0,West,15.0,27.6,N/A,,Haze,280,2014-02-18 04:35:00
10:55 PM,27.3,23.0,84,29.74,5.0,WNW,15.0,25.3,N/A,,Mostly Cloudy,290,2014-02-18 04:55:00
11:15 PM,27.5,22.6,82,29.75,5.0,WNW,16.1,31.1,N/A,,Mostly Cloudy,300,2014-02-18 05:15:00
11:35 PM,27.5,22.1,80,29.76,5.0,WNW,13.8,20.7,N/A,,Haze,300,2014-02-18 05:35:00
11:55 PM,27.5,22.1,80,29.77,4.0,WNW,12.7,21.9,N/A,,Haze,300,2014-02-18 05:55:00